Location: Ellerstadt
(49.4644°N, 8.2615°E)
Time: 03:43:34
(UTC+00:00)

Cosmos 1707 Rocket - Pass Details

Date: 03 March 2021
Orbit: 604 x 632 km, 82.5° (Epoch: 16 April)

Event Time Altitude Azimuth Distance (km) Brightness Sun altitude
Rises 17:56:27 0° 347° (NNW) 2,909 7.2 -7.8°
Reaches altitude 10° 17:58:43 10° 344° (NNW) 1,994 6.4 -8.2°
Maximum altitude 18:03:03 60° 265° (W) 708 4.2 -8.9°
Drops below altitude 10° 18:07:19 10° 185° (S) 1,961 6.2 -9.6°
Sets 18:09:32 0° 182° (S) 2,856 7.0 -9.9°
